Weather History for KMRH - December, 2012

Change the Weather History Date:

Saturday, December 15, 2012

  Actual Average Record
Temperature  
Mean Temperature 52 °F -  
Max Temperature 60 °F 61 °F 76 °F (1984)
Min Temperature 44 °F 39 °F 20 °F (1962)
Degree Days  
Heating Degree Days 13    
Growing Degree Days 2 (Base 50)    
Moisture  
Dew Point 46 °F    
Average Humidity 81    
Maximum Humidity 96    
Minimum Humidity 62    
Precipitation  
Precipitation 0.00 in - - ()
Sea Level Pressure  
Sea Level Pressure 30.19 in    
Wind  
Wind Speed 5 mph (NE)    
Max Wind Speed 8 mph    
Max Gust Speed -    
Visibility 10 miles    
Events      
Averages and records for this station are not official NWS values.
T = Trace of Precipitation, MM = Missing Value Source: NWS Daily Summary

Daily Weather History Graph

Daily Weather History Graph

Search for Another Location

Airport or City:

Trip Planner

Search our weather history database for the weather conditions in past years. The results will help you decide how hot, cold, wet, or windy it might be!

Date:

Astronomy

Dec. 15, 2012 Rise Set
Actual Time 7:06 AM EST 4:57 PM EST
Civil Twilight 6:38 AM EST 5:25 PM EST
Nautical Twilight 6:07 AM EST 5:56 PM EST
Astronomical Twilight 5:36 AM EST 6:27 PM EST
Moon 9:02 AM EST (12/15) 7:53 PM EST (12/15)
Length of Visible Light 10h 46m
Length of Day
9h 50m
Waxing Crescent, 8% of the Moon is Illuminated
Dec 15
Waxing Crescent
Dec 20
First Quarter
Dec 28
Full
Jan 4
Last Quarter
Jan 11
New

Hourly Weather History & Observations

Time (EST) Temp. Windchill Dew Point Humidity Pressure Visibility Wind Dir Wind Speed Gust Speed Precip Events Conditions
12:56 AM 44.1 °F 41.5 °F 43.0 °F 96% 30.25 in 10.0 mi NE 4.6 mph - N/A   Clear
1:56 AM 44.1 °F 40.8 °F 42.1 °F 93% 30.24 in 10.0 mi NE 5.8 mph - N/A   Clear
2:56 AM 44.1 °F 40.8 °F 43.0 °F 96% 30.23 in 10.0 mi NE 5.8 mph - N/A   Clear
3:56 AM 44.1 °F 40.8 °F 42.1 °F 93% 30.23 in 10.0 mi NE 5.8 mph - N/A   Clear
4:56 AM 44.1 °F - 43.0 °F 96% 30.24 in 10.0 mi Calm Calm - N/A   Clear
5:56 AM 46.0 °F 43.1 °F 42.1 °F 86% 30.22 in 10.0 mi ENE 5.8 mph - N/A   Clear
6:56 AM 46.9 °F - 42.1 °F 83% 30.22 in 10.0 mi ENE 5.8 mph - N/A   Clear
7:56 AM 48.0 °F - 42.1 °F 80% 30.24 in 10.0 mi NE 4.6 mph - N/A   Clear
9:56 AM 52.0 °F - 44.1 °F 74% 30.26 in 10.0 mi NE 6.9 mph - N/A   Clear
10:56 AM 54.0 °F - 44.1 °F 69% 30.25 in 10.0 mi NNE 8.1 mph - N/A   Clear
11:56 AM 57.9 °F - 45.0 °F 62% 30.22 in 10.0 mi NNE 8.1 mph - N/A   Clear
12:56 PM 60.1 °F - 46.9 °F 62% 30.19 in 10.0 mi NE 8.1 mph - N/A   Clear
1:56 PM 60.1 °F - 48.0 °F 64% 30.18 in 10.0 mi NNE 8.1 mph - N/A   Clear
2:56 PM 59.0 °F - 46.9 °F 64% 30.17 in 10.0 mi NNE 8.1 mph - N/A   Scattered Clouds
3:56 PM 57.9 °F - 48.0 °F 70% 30.17 in 10.0 mi NNE 6.9 mph - N/A   Overcast
4:56 PM 54.0 °F - 46.9 °F 77% 30.17 in 10.0 mi NE 4.6 mph - N/A   Partly Cloudy
5:56 PM 52.0 °F - 46.0 °F 80% 30.17 in 10.0 mi NE 5.8 mph - N/A   Partly Cloudy
6:56 PM 51.1 °F - 46.0 °F 83% 30.17 in 10.0 mi Calm Calm - N/A   Partly Cloudy
7:56 PM 52.0 °F - 46.9 °F 83% 30.16 in 10.0 mi NE 3.5 mph - N/A   Overcast
8:56 PM 51.1 °F - 46.9 °F 86% 30.14 in 10.0 mi East 3.5 mph - N/A   Mostly Cloudy
9:56 PM 53.1 °F - 48.9 °F 86% 30.13 in 10.0 mi Calm Calm - N/A   Overcast
10:56 PM 54.0 °F - 50.0 °F 86% 30.12 in 10.0 mi Calm Calm - N/A   Overcast
11:56 PM 55.9 °F - 54.0 °F 93% 30.10 in 10.0 mi Calm Calm - 0.00 in   Overcast